Location: Unspecified
(49.2170°N, 0.0000°E)
Time: 06:40:06
(UTC+00:00)

A-11 Canister half - Pass Details

Date: 18 June 2019
Orbit: 1527 x 1682 km, 47.3° (Epoch: 13 October)

Event Time Altitude Azimuth Distance (km) Brightness Sun altitude
Rises 04:12:26 0° 198° (SSW) 4,734 11.1 1.6°
Reaches altitude 10° 04:16:08 10° 187° (S) 3,733 10.7 2.0°
Maximum altitude 04:23:29 27° 134° (SE) 2,635 10.5 3.0°
Drops below altitude 10° 04:30:45 10° 82° (E) 3,699 12.4 4.0°
Sets 04:34:22 0° 71° (ENE) 4,683 13.6 4.5°
